SHIJIAN-28 (SJ-28)

Last updated on Sun Apr 12 2026 00:02:57 GMT+0000 (Coordinated Universal Time)

1 66549U 25277A 26101.47249512 -.00000367 00000+0 00000+0 0 9992 2 66549 4.7120 273.1592 0000325 202.5321 10.9360 1.00269729 1488
UTC large
Height (km)
Speed (km/s)
/
Latitude / Longitude
Inclination (degrees)
Orbital Period (minutes)
Azimuth
Elevation
Range (km)
Doppler Factor

Next 0 passes for location: London (51.5072 / 0.1276)

Sorry there are no passes over London.
SHIJIAN-28 (SJ-28)